Time,TemperatureF,DewpointF,PressureIn,WindDirection,WindDirectionDegrees,WindSpeedMPH,WindSpeedGustMPH,Humidity,HourlyPrecipIn,Conditions,Clouds,dailyrainin,SoftwareType,DateUTC
2013-01-02 00:09:00,43.9,43.0,29.96,NNE,29,1.0,3.0,96,0.06,,,0.22,weatherlink.com 1.10,2013-01-02 05:09:00,
2013-01-02 00:24:00,43.8,43.0,29.96,NE,49,1.0,3.0,96,0.04,,,0.23,weatherlink.com 1.10,2013-01-02 05:24:00,
2013-01-02 00:39:00,43.7,43.0,29.96,WNW,298,0.0,3.0,96,0.05,,,0.02,weatherlink.com 1.10,2013-01-02 05:39:00,
2013-01-02 00:54:00,43.6,43.0,29.96,NNW,328,1.0,4.0,96,0.08,,,0.05,weatherlink.com 1.10,2013-01-02 05:54:00,
2013-01-02 01:09:00,43.4,42.0,29.94,North,9,1.0,3.0,96,0.08,,,0.06,weatherlink.com 1.10,2013-01-02 06:09:00,
2013-01-02 01:24:00,43.3,42.0,29.94,NW,322,0.0,3.0,96,0.07,,,0.06,weatherlink.com 1.10,2013-01-02 06:24:00,
2013-01-02 01:39:00,43.2,42.0,29.96,North,360,1.0,2.0,96,0.04,,,0.07,weatherlink.com 1.10,2013-01-02 06:39:00,
2013-01-02 01:54:00,43.2,42.0,29.96,NE,43,1.0,6.0,96,0.03,,,0.08,weatherlink.com 1.10,2013-01-02 06:54:00,
2013-01-02 02:09:00,43.1,42.0,29.97,North,360,0.0,3.0,96,0.02,,,0.08,weatherlink.com 1.10,2013-01-02 07:09:00,
2013-01-02 02:24:00,42.9,42.0,29.97,North,10,0.0,5.0,96,0.02,,,0.08,weatherlink.com 1.10,2013-01-02 07:24:00,
2013-01-02 02:39:00,42.7,42.0,29.97,NNE,20,1.0,6.0,96,0.02,,,0.09,weatherlink.com 1.10,2013-01-02 07:39:00,
2013-01-02 02:54:00,42.3,41.0,29.97,NNW,348,1.0,7.0,96,0.02,,,0.10,weatherlink.com 1.10,2013-01-02 07:54:00,
2013-01-02 03:09:00,42.0,41.0,29.98,WNW,302,1.0,4.0,96,0.02,,,0.10,weatherlink.com 1.10,2013-01-02 08:09:00,
2013-01-02 03:24:00,41.8,41.0,29.98,WNW,295,0.0,4.0,96,0.02,,,0.10,weatherlink.com 1.10,2013-01-02 08:24:00,
2013-01-02 03:39:00,41.7,41.0,29.97,North,5,1.0,4.0,96,0.01,,,0.10,weatherlink.com 1.10,2013-01-02 08:39:00,
2013-01-02 03:54:00,41.6,41.0,29.97,North,350,0.0,4.0,96,0.00,,,0.10,weatherlink.com 1.10,2013-01-02 08:54:00,
2013-01-02 04:09:00,41.6,41.0,29.98,NE,45,1.0,4.0,96,0.00,,,0.10,weatherlink.com 1.10,2013-01-02 09:09:00,
2013-01-02 04:24:00,41.6,41.0,29.98,NW,305,2.0,2.0,96,0.00,,,0.10,weatherlink.com 1.10,2013-01-02 09:24:00,
2013-01-02 04:39:00,41.5,41.0,29.98,WSW,255,1.0,3.0,96,0.00,,,0.10,weatherlink.com 1.10,2013-01-02 09:39:00,
2013-01-02 04:54:00,41.4,40.0,30.00,NNW,327,0.0,2.0,96,0.00,,,0.10,weatherlink.com 1.10,2013-01-02 09:54:00,
2013-01-02 05:09:00,41.3,40.0,29.98,NNW,327,0.0,1.0,96,0.00,,,0.10,weatherlink.com 1.10,2013-01-02 10:09:00,
2013-01-02 05:24:00,41.2,40.0,29.99,NNW,327,0.0,1.0,96,0.00,,,0.10,weatherlink.com 1.10,2013-01-02 10:24:00,
2013-01-02 05:39:00,41.1,40.0,29.99,NNW,327,0.0,1.0,96,0.00,,,0.10,weatherlink.com 1.10,2013-01-02 10:39:00,
2013-01-02 05:55:00,41.1,40.0,30.00,NNW,327,0.0,1.0,96,0.00,,,0.10,weatherlink.com 1.10,2013-01-02 10:55:00,
2013-01-02 06:09:00,41.0,40.0,29.99,NNW,327,1.0,1.0,96,0.00,,,0.10,weatherlink.com 1.10,2013-01-02 11:09:00,
2013-01-02 06:24:00,40.9,40.0,30.00,NNW,327,0.0,1.0,96,0.00,,,0.10,weatherlink.com 1.10,2013-01-02 11:24:00,
2013-01-02 06:39:00,40.9,40.0,30.02,NNW,327,0.0,1.0,96,0.00,,,0.10,weatherlink.com 1.10,2013-01-02 11:39:00,
2013-01-02 06:54:00,40.8,40.0,30.02,North,360,0.0,3.0,96,0.00,,,0.10,weatherlink.com 1.10,2013-01-02 11:54:00,
2013-01-02 07:09:00,40.7,40.0,30.03,North,360,0.0,2.0,96,0.00,,,0.10,weatherlink.com 1.10,2013-01-02 12:09:00,
2013-01-02 07:24:00,40.5,40.0,30.03,NNE,31,0.0,3.0,96,0.00,,,0.10,weatherlink.com 1.10,2013-01-02 12:24:00,
2013-01-02 07:40:00,40.0,39.0,30.05,NW,316,1.0,5.0,96,0.00,,,0.10,weatherlink.com 1.10,2013-01-02 12:40:00,
2013-01-02 07:55:00,39.3,37.0,30.07,NNW,336,3.0,8.0,92,0.00,,,0.10,weatherlink.com 1.10,2013-01-02 12:55:00,
2013-01-02 08:10:00,39.2,37.0,30.07,NNW,327,1.0,7.0,90,0.00,,,0.10,weatherlink.com 1.10,2013-01-02 13:10:00,
2013-01-02 08:25:00,39.2,36.0,30.07,NNW,333,1.0,4.0,89,0.00,,,0.10,weatherlink.com 1.10,2013-01-02 13:25:00,
2013-01-02 08:40:00,39.4,36.0,30.08,North,355,1.0,4.0,88,0.00,,,0.10,weatherlink.com 1.10,2013-01-02 13:40:00,
2013-01-02 08:55:00,39.6,36.0,30.09,WNW,290,2.0,6.0,87,0.00,,,0.10,weatherlink.com 1.10,2013-01-02 13:55:00,
2013-01-02 09:10:00,39.8,36.0,30.09,North,360,0.0,4.0,87,0.00,,,0.10,weatherlink.com 1.10,2013-01-02 14:10:00,
2013-01-02 09:25:00,39.9,37.0,30.10,NW,310,2.0,2.0,88,0.00,,,0.10,weatherlink.com 1.10,2013-01-02 14:25:00,
2013-01-02 09:40:00,40.4,36.0,30.10,WNW,285,1.0,3.0,85,0.00,,,0.10,weatherlink.com 1.10,2013-01-02 14:40:00,
2013-01-02 09:55:00,41.3,36.0,30.11,NW,307,0.0,7.0,82,0.00,,,0.10,weatherlink.com 1.10,2013-01-02 14:55:00,
2013-01-02 10:10:00,41.3,36.0,30.10,WNW,301,2.0,5.0,82,0.00,,,0.10,weatherlink.com 1.10,2013-01-02 15:10:00,
2013-01-02 10:25:00,41.7,36.0,30.11,NNE,15,7.0,7.0,79,0.00,,,0.10,weatherlink.com 1.10,2013-01-02 15:25:00,
2013-01-02 10:40:00,41.9,37.0,30.11,NNE,18,5.0,7.0,81,0.00,,,0.10,weatherlink.com 1.10,2013-01-02 15:40:00,
2013-01-02 10:55:00,42.9,36.0,30.11,North,355,6.0,9.0,75,0.00,,,0.10,weatherlink.com 1.10,2013-01-02 15:55:00,
2013-01-02 11:10:00,43.5,36.0,30.11,NW,323,2.0,5.0,74,0.00,,,0.10,weatherlink.com 1.10,2013-01-02 16:10:00,
2013-01-02 11:25:00,44.9,35.0,30.11,WNW,292,3.0,10.0,68,0.00,,,0.10,weatherlink.com 1.10,2013-01-02 16:25:00,
2013-01-02 11:40:00,45.2,34.0,30.11,NNE,29,6.0,9.0,66,0.00,,,0.10,weatherlink.com 1.10,2013-01-02 16:40:00,
2013-01-02 11:55:00,45.6,34.0,30.09,WNW,294,6.0,8.0,63,0.00,,,0.10,weatherlink.com 1.10,2013-01-02 16:55:00,
2013-01-02 12:10:00,47.3,34.0,30.09,NNW,341,6.0,9.0,60,0.00,,,0.10,weatherlink.com 1.10,2013-01-02 17:10:00,
2013-01-02 12:25:00,46.1,33.0,30.09,ENE,64,7.0,10.0,60,0.00,,,0.10,weatherlink.com 1.10,2013-01-02 17:25:00,
2013-01-02 12:40:00,46.6,33.0,30.07,NW,311,5.0,10.0,59,0.00,,,0.10,weatherlink.com 1.10,2013-01-02 17:40:00,
2013-01-02 12:55:00,46.9,33.0,30.07,WNW,296,2.0,6.0,60,0.00,,,0.10,weatherlink.com 1.10,2013-01-02 17:55:00,
2013-01-02 13:10:00,46.9,33.0,30.06,WNW,283,8.0,9.0,58,0.00,,,0.10,weatherlink.com 1.10,2013-01-02 18:10:00,
2013-01-02 13:25:00,47.1,33.0,30.07,NE,36,4.0,10.0,58,0.00,,,0.10,weatherlink.com 1.10,2013-01-02 18:25:00,
2013-01-02 13:40:00,47.7,32.0,30.07,WSW,240,2.0,8.0,55,0.00,,,0.10,weatherlink.com 1.10,2013-01-02 18:40:00,
2013-01-02 13:55:00,48.1,32.0,30.06,SSW,199,2.0,7.0,55,0.00,,,0.10,weatherlink.com 1.10,2013-01-02 18:55:00,
2013-01-02 14:10:00,47.9,33.0,30.07,NW,317,3.0,7.0,56,0.00,,,0.10,weatherlink.com 1.10,2013-01-02 19:10:00,
2013-01-02 14:25:00,48.0,33.0,30.07,WNW,296,4.0,5.0,57,0.00,,,0.10,weatherlink.com 1.10,2013-01-02 19:25:00,
2013-01-02 14:40:00,46.9,33.0,30.07,NW,309,2.0,4.0,58,0.00,,,0.10,weatherlink.com 1.10,2013-01-02 19:40:00,
2013-01-02 15:10:00,46.5,33.0,30.09,West,267,0.0,6.0,59,0.00,,,0.10,weatherlink.com 1.10,2013-01-02 20:10:00,
2013-01-02 15:25:00,45.8,32.0,30.08,NW,313,2.0,4.0,59,0.00,,,0.10,weatherlink.com 1.10,2013-01-02 20:25:00,
2013-01-02 15:55:00,44.2,32.0,30.11,West,273,1.0,6.0,63,0.00,,,0.10,weatherlink.com 1.10,2013-01-02 20:55:00,
2013-01-02 16:10:00,44.0,32.0,30.12,NW,319,1.0,5.0,62,0.00,,,0.10,weatherlink.com 1.10,2013-01-02 21:10:00,
2013-01-02 16:25:00,43.3,31.0,30.12,NW,309,3.0,8.0,63,0.00,,,0.10,weatherlink.com 1.10,2013-01-02 21:25:00,
2013-01-02 16:40:00,42.7,31.0,30.11,North,5,3.0,9.0,64,0.00,,,0.10,weatherlink.com 1.10,2013-01-02 21:40:00,
2013-01-02 16:55:00,42.1,31.0,30.12,WNW,284,3.0,7.0,65,0.00,,,0.10,weatherlink.com 1.10,2013-01-02 21:55:00,
2013-01-02 17:10:00,41.4,31.0,30.13,NW,311,2.0,3.0,66,0.00,,,0.10,weatherlink.com 1.10,2013-01-02 22:10:00,
2013-01-02 17:25:00,40.7,30.0,30.13,NNW,331,1.0,5.0,66,0.00,,,0.10,weatherlink.com 1.10,2013-01-02 22:25:00,
2013-01-02 17:40:00,40.2,30.0,30.12,NW,321,1.0,4.0,68,0.00,,,0.10,weatherlink.com 1.10,2013-01-02 22:40:00,
2013-01-02 18:10:00,39.7,31.0,30.14,NNW,331,1.0,3.0,70,0.00,,,0.10,weatherlink.com 1.10,2013-01-02 23:10:00,
2013-01-02 18:25:00,39.4,30.0,30.13,NW,312,0.0,2.0,70,0.00,,,0.10,weatherlink.com 1.10,2013-01-02 23:25:00,
2013-01-02 18:40:00,39.3,31.0,30.14,NW,317,1.0,2.0,71,0.00,,,0.10,weatherlink.com 1.10,2013-01-02 23:40:00,
2013-01-02 18:55:00,39.1,31.0,30.16,NW,317,2.0,2.0,72,0.00,,,0.10,weatherlink.com 1.10,2013-01-02 23:55:00,
2013-01-02 19:11:00,38.9,30.0,30.17,NW,323,1.0,2.0,71,0.00,,,0.10,weatherlink.com 1.10,2013-01-03 00:11:00,
2013-01-02 19:26:00,38.9,31.0,30.16,NW,323,1.0,1.0,72,0.00,,,0.10,weatherlink.com 1.10,2013-01-03 00:26:00,
2013-01-02 19:41:00,38.7,30.0,30.16,NW,323,0.0,2.0,72,0.00,,,0.10,weatherlink.com 1.10,2013-01-03 00:41:00,
2013-01-02 19:56:00,38.5,30.0,30.16,NNE,20,0.0,3.0,72,0.00,,,0.10,weatherlink.com 1.10,2013-01-03 00:56:00,
2013-01-02 20:11:00,38.5,31.0,30.18,North,5,1.0,4.0,73,0.00,,,0.10,weatherlink.com 1.10,2013-01-03 01:11:00,
2013-01-02 20:26:00,38.1,31.0,30.17,North,5,0.0,1.0,75,0.00,,,0.10,weatherlink.com 1.10,2013-01-03 01:26:00,
2013-01-02 20:41:00,37.8,30.0,30.16,NE,56,0.0,1.0,73,0.00,,,0.10,weatherlink.com 1.10,2013-01-03 01:41:00,
2013-01-02 20:56:00,37.6,31.0,30.17,NE,56,0.0,1.0,77,0.00,,,0.10,weatherlink.com 1.10,2013-01-03 01:56:00,
2013-01-02 21:11:00,37.3,29.0,30.16,WNW,303,1.0,2.0,73,0.00,,,0.10,weatherlink.com 1.10,2013-01-03 02:11:00,
2013-01-02 21:26:00,37.1,30.0,30.17,NW,307,0.0,2.0,76,0.00,,,0.10,weatherlink.com 1.10,2013-01-03 02:26:00,
2013-01-02 21:41:00,36.9,30.0,30.18,NW,315,0.0,1.0,75,0.00,,,0.10,weatherlink.com 1.10,2013-01-03 02:41:00,
2013-01-02 21:56:00,36.8,30.0,30.17,NW,315,0.0,1.0,76,0.00,,,0.10,weatherlink.com 1.10,2013-01-03 02:56:00,
2013-01-02 22:11:00,36.8,30.0,30.18,North,355,0.0,1.0,75,0.00,,,0.10,weatherlink.com 1.10,2013-01-03 03:11:00,
2013-01-02 22:26:00,36.7,29.0,30.19,North,355,0.0,1.0,75,0.00,,,0.10,weatherlink.com 1.10,2013-01-03 03:26:00,
2013-01-02 22:41:00,36.7,30.0,30.20,North,355,1.0,1.0,76,0.00,,,0.10,weatherlink.com 1.10,2013-01-03 03:41:00,
2013-01-02 22:56:00,36.8,30.0,30.20,North,355,1.0,1.0,75,0.00,,,0.10,weatherlink.com 1.10,2013-01-03 03:56:00,
2013-01-02 23:11:00,37.0,29.0,30.20,North,355,1.0,1.0,73,0.00,,,0.10,weatherlink.com 1.10,2013-01-03 04:11:00,
2013-01-02 23:26:00,37.1,29.0,30.19,North,355,0.0,1.0,73,0.00,,,0.10,weatherlink.com 1.10,2013-01-03 04:26:00,
2013-01-02 23:41:00,37.1,28.0,30.19,North,355,0.0,1.0,70,0.00,,,0.10,weatherlink.com 1.10,2013-01-03 04:41:00,
2013-01-02 23:56:00,37.2,29.0,30.18,North,355,0.0,1.0,71,0.00,,,0.10,weatherlink.com 1.10,2013-01-03 04:56:00,